Time,TemperatureF,DewpointF,PressureIn,WindDirection,WindDirectionDegrees,WindSpeedMPH,WindSpeedGustMPH,Humidity,HourlyPrecipIn,Conditions,Clouds,dailyrainin,SoftwareType,DateUTC
2013-07-06 00:06:00,72.1,71.0,29.96,ENE,74,7.0,-999.0,96,-99.99,,,1.96,weatherlink.com 1.10,2013-07-06 05:06:00,
2013-07-06 00:22:00,72.8,72.0,29.96,East,92,13.0,-999.0,97,-99.99,,,1.96,weatherlink.com 1.10,2013-07-06 05:22:00,
2013-07-06 00:37:00,73.2,72.0,29.96,East,92,9.0,-999.0,96,-99.99,,,0.00,weatherlink.com 1.10,2013-07-06 05:37:00,
2013-07-06 00:52:00,73.4,72.0,29.96,East,96,11.0,-999.0,96,-99.99,,,0.00,weatherlink.com 1.10,2013-07-06 05:52:00,
2013-07-06 01:07:00,73.6,72.0,29.95,East,90,4.0,-999.0,96,-99.99,,,0.00,weatherlink.com 1.10,2013-07-06 06:07:00,
2013-07-06 01:22:00,73.7,73.0,29.95,ENE,77,5.0,-999.0,96,-99.99,,,0.00,weatherlink.com 1.10,2013-07-06 06:22:00,
2013-07-06 01:37:00,73.7,73.0,29.94,East,87,5.0,-999.0,96,-99.99,,,0.00,weatherlink.com 1.10,2013-07-06 06:37:00,
2013-07-06 01:52:00,73.6,72.0,29.94,ENE,78,9.0,-999.0,96,-99.99,,,0.00,weatherlink.com 1.10,2013-07-06 06:52:00,
2013-07-06 02:08:00,73.7,73.0,29.94,East,82,6.0,-999.0,96,-99.99,,,0.00,weatherlink.com 1.10,2013-07-06 07:08:00,
2013-07-06 02:22:00,73.7,73.0,29.94,ENE,72,6.0,-999.0,97,-99.99,,,0.00,weatherlink.com 1.10,2013-07-06 07:22:00,
2013-07-06 02:37:00,73.7,73.0,29.93,ENE,74,5.0,-999.0,97,-99.99,,,0.00,weatherlink.com 1.10,2013-07-06 07:37:00,
2013-07-06 02:52:00,73.8,73.0,29.93,ENE,74,4.0,-999.0,97,-99.99,,,0.00,weatherlink.com 1.10,2013-07-06 07:52:00,
2013-07-06 03:08:00,73.7,73.0,29.93,ENE,74,2.0,-999.0,97,-99.99,,,0.00,weatherlink.com 1.10,2013-07-06 08:08:00,
2013-07-06 03:23:00,73.4,73.0,29.93,ENE,74,5.0,-999.0,97,-99.99,,,0.00,weatherlink.com 1.10,2013-07-06 08:23:00,
2013-07-06 03:38:00,73.2,72.0,29.93,NNE,19,4.0,-999.0,97,-99.99,,,0.00,weatherlink.com 1.10,2013-07-06 08:38:00,
2013-07-06 03:53:00,73.1,72.0,29.93,NE,35,5.0,-999.0,97,-99.99,,,0.00,weatherlink.com 1.10,2013-07-06 08:53:00,
2013-07-06 04:08:00,73.1,72.0,29.93,NE,39,5.0,-999.0,97,-99.99,,,0.00,weatherlink.com 1.10,2013-07-06 09:08:00,
2013-07-06 04:23:00,73.3,72.0,29.94,NE,49,5.0,-999.0,97,-99.99,,,0.00,weatherlink.com 1.10,2013-07-06 09:23:00,
2013-07-06 04:38:00,73.5,73.0,29.94,NE,49,4.0,-999.0,97,-99.99,,,0.00,weatherlink.com 1.10,2013-07-06 09:38:00,
2013-07-06 04:53:00,73.7,73.0,29.95,NE,41,6.0,-999.0,98,-99.99,,,0.00,weatherlink.com 1.10,2013-07-06 09:53:00,
2013-07-06 05:08:00,74.0,73.0,29.95,NE,40,3.0,-999.0,98,-99.99,,,0.00,weatherlink.com 1.10,2013-07-06 10:08:00,
2013-07-06 05:23:00,74.0,73.0,29.95,NE,46,5.0,-999.0,98,-99.99,,,0.00,weatherlink.com 1.10,2013-07-06 10:23:00,
2013-07-06 05:38:00,74.1,73.0,29.95,NE,50,6.0,-999.0,97,-99.99,,,0.00,weatherlink.com 1.10,2013-07-06 10:38:00,
2013-07-06 05:53:00,74.1,74.0,29.95,NE,50,9.0,-999.0,98,-99.99,,,0.00,weatherlink.com 1.10,2013-07-06 10:53:00,
2013-07-06 06:08:00,74.3,74.0,29.95,ENE,61,10.0,-999.0,98,-99.99,,,0.00,weatherlink.com 1.10,2013-07-06 11:08:00,
2013-07-06 06:24:00,74.3,73.0,29.95,NE,49,9.0,-999.0,97,-99.99,,,0.00,weatherlink.com 1.10,2013-07-06 11:24:00,
2013-07-06 06:39:00,74.4,74.0,29.95,NE,47,8.0,-999.0,98,-99.99,,,0.00,weatherlink.com 1.10,2013-07-06 11:39:00,
2013-07-06 06:54:00,74.6,74.0,29.96,ENE,66,7.0,-999.0,97,-99.99,,,0.00,weatherlink.com 1.10,2013-07-06 11:54:00,
2013-07-06 07:09:00,74.8,74.0,29.95,NE,49,8.0,-999.0,97,-99.99,,,0.00,weatherlink.com 1.10,2013-07-06 12:09:00,
2013-07-06 07:24:00,74.8,74.0,29.96,ENE,61,7.0,-999.0,97,-99.99,,,0.00,weatherlink.com 1.10,2013-07-06 12:24:00,
2013-07-06 07:39:00,75.2,74.0,29.96,ENE,67,10.0,-999.0,97,-99.99,,,0.00,weatherlink.com 1.10,2013-07-06 12:39:00,
2013-07-06 07:54:00,75.5,74.0,29.97,ENE,75,10.0,-999.0,96,-99.99,,,0.01,weatherlink.com 1.10,2013-07-06 12:54:00,
2013-07-06 08:09:00,75.7,75.0,29.96,ENE,69,9.0,-999.0,96,-99.99,,,0.01,weatherlink.com 1.10,2013-07-06 13:09:00,
2013-07-06 08:24:00,76.2,75.0,29.96,NE,54,11.0,-999.0,95,-99.99,,,0.01,weatherlink.com 1.10,2013-07-06 13:24:00,
2013-07-06 08:39:00,76.9,75.0,29.96,ENE,59,8.0,-999.0,94,-99.99,,,0.01,weatherlink.com 1.10,2013-07-06 13:39:00,
2013-07-06 08:54:00,77.0,75.0,29.96,ENE,78,13.0,-999.0,93,-99.99,,,0.01,weatherlink.com 1.10,2013-07-06 13:54:00,
2013-07-06 09:10:00,76.8,75.0,29.98,ESE,106,5.0,-999.0,93,-99.99,,,0.04,weatherlink.com 1.10,2013-07-06 14:10:00,
2013-07-06 09:25:00,76.3,75.0,29.98,NNE,33,5.0,-999.0,94,-99.99,,,0.28,weatherlink.com 1.10,2013-07-06 14:25:00,
2013-07-06 09:40:00,75.8,74.0,29.98,WNW,292,2.0,-999.0,95,-99.99,,,0.36,weatherlink.com 1.10,2013-07-06 14:40:00,
2013-07-06 09:55:00,74.9,73.0,29.98,NW,325,4.0,-999.0,95,-99.99,,,0.70,weatherlink.com 1.10,2013-07-06 14:55:00,
2013-07-06 10:10:00,74.4,73.0,29.98,North,5,2.0,-999.0,96,-99.99,,,0.77,weatherlink.com 1.10,2013-07-06 15:10:00,
2013-07-06 10:25:00,74.5,73.0,29.98,NW,325,2.0,-999.0,96,-99.99,,,0.77,weatherlink.com 1.10,2013-07-06 15:25:00,
2013-07-06 10:40:00,74.5,73.0,29.97,NNW,336,2.0,-999.0,96,-99.99,,,0.78,weatherlink.com 1.10,2013-07-06 15:40:00,
2013-07-06 10:55:00,74.3,73.0,29.97,West,261,3.0,-999.0,96,-99.99,,,0.84,weatherlink.com 1.10,2013-07-06 15:55:00,
2013-07-06 11:10:00,74.8,74.0,29.97,WNW,286,2.0,-999.0,97,-99.99,,,0.86,weatherlink.com 1.10,2013-07-06 16:10:00,
2013-07-06 11:40:00,74.1,73.0,29.97,NNW,348,1.0,-999.0,97,-99.99,,,0.93,weatherlink.com 1.10,2013-07-06 16:40:00,
2013-07-06 11:56:00,74.0,73.0,29.98,NW,325,4.0,-999.0,97,-99.99,,,1.02,weatherlink.com 1.10,2013-07-06 16:56:00,
2013-07-06 12:26:00,73.7,73.0,29.99,NNE,23,1.0,-999.0,97,-99.99,,,1.13,weatherlink.com 1.10,2013-07-06 17:26:00,
2013-07-06 13:26:00,74.2,73.0,29.99,NW,309,2.0,-999.0,97,-99.99,,,1.16,weatherlink.com 1.10,2013-07-06 18:26:00,
2013-07-06 13:41:00,74.0,73.0,29.99,WNW,284,7.0,-999.0,97,-99.99,,,1.16,weatherlink.com 1.10,2013-07-06 18:41:00,
2013-07-06 13:57:00,74.3,73.0,29.99,WNW,300,1.0,-999.0,97,-99.99,,,1.16,weatherlink.com 1.10,2013-07-06 18:57:00,
2013-07-06 14:12:00,74.6,74.0,29.98,WNW,300,1.0,-999.0,97,-99.99,,,1.17,weatherlink.com 1.10,2013-07-06 19:12:00,
2013-07-06 14:27:00,75.0,74.0,29.98,North,5,3.0,-999.0,97,-99.99,,,1.17,weatherlink.com 1.10,2013-07-06 19:27:00,
2013-07-06 14:57:00,75.8,75.0,29.97,NW,304,1.0,-999.0,96,-99.99,,,1.17,weatherlink.com 1.10,2013-07-06 19:57:00,
2013-07-06 15:12:00,76.6,75.0,29.97,NNE,19,0.0,-999.0,95,-99.99,,,1.17,weatherlink.com 1.10,2013-07-06 20:12:00,
2013-07-06 15:27:00,77.1,75.0,29.96,NNE,16,0.0,-999.0,93,-99.99,,,1.17,weatherlink.com 1.10,2013-07-06 20:27:00,
2013-07-06 15:42:00,77.3,75.0,29.96,NNE,27,0.0,-999.0,91,-99.99,,,1.17,weatherlink.com 1.10,2013-07-06 20:42:00,
2013-07-06 16:12:00,77.2,74.0,29.96,ENE,63,2.0,-999.0,90,-99.99,,,1.17,weatherlink.com 1.10,2013-07-06 21:12:00,
2013-07-06 16:27:00,77.2,74.0,29.96,ENE,63,4.0,-999.0,90,-99.99,,,1.17,weatherlink.com 1.10,2013-07-06 21:27:00,
2013-07-06 16:57:00,76.6,75.0,29.96,East,88,7.0,-999.0,93,-99.99,,,1.17,weatherlink.com 1.10,2013-07-06 21:57:00,
2013-07-06 17:12:00,76.2,74.0,29.95,East,86,7.0,-999.0,94,-99.99,,,1.17,weatherlink.com 1.10,2013-07-06 22:12:00,
2013-07-06 17:27:00,76.2,74.0,29.95,East,92,4.0,-999.0,94,-99.99,,,1.17,weatherlink.com 1.10,2013-07-06 22:27:00,
2013-07-06 17:42:00,76.1,74.0,29.95,East,93,3.0,-999.0,94,-99.99,,,1.17,weatherlink.com 1.10,2013-07-06 22:42:00,
2013-07-06 18:13:00,76.0,74.0,29.96,East,90,8.0,-999.0,94,-99.99,,,1.17,weatherlink.com 1.10,2013-07-06 23:13:00,
2013-07-06 18:28:00,75.9,74.0,29.96,ENE,72,7.0,-999.0,95,-99.99,,,1.17,weatherlink.com 1.10,2013-07-06 23:28:00,
2013-07-06 18:43:00,76.0,75.0,29.96,ENE,74,7.0,-999.0,95,-99.99,,,1.17,weatherlink.com 1.10,2013-07-06 23:43:00,
2013-07-06 18:58:00,76.0,75.0,29.96,East,87,5.0,-999.0,95,-99.99,,,1.17,weatherlink.com 1.10,2013-07-06 23:58:00,
2013-07-06 19:43:00,76.0,75.0,29.97,East,91,5.0,-999.0,95,-99.99,,,1.17,weatherlink.com 1.10,2013-07-07 00:43:00,
2013-07-06 19:58:00,75.9,74.0,29.97,East,92,5.0,-999.0,95,-99.99,,,1.17,weatherlink.com 1.10,2013-07-07 00:58:00,
2013-07-06 20:13:00,75.9,74.0,29.97,East,92,3.0,-999.0,95,-99.99,,,1.17,weatherlink.com 1.10,2013-07-07 01:13:00,
2013-07-06 20:28:00,75.6,74.0,29.98,East,92,4.0,-999.0,95,-99.99,,,1.17,weatherlink.com 1.10,2013-07-07 01:28:00,
2013-07-06 21:14:00,75.1,74.0,29.99,East,92,5.0,-999.0,96,-99.99,,,1.17,weatherlink.com 1.10,2013-07-07 02:14:00,
2013-07-06 21:29:00,75.0,74.0,29.99,East,92,4.0,-999.0,96,-99.99,,,1.17,weatherlink.com 1.10,2013-07-07 02:29:00,
2013-07-06 21:59:00,74.9,74.0,29.99,East,92,3.0,-999.0,96,-99.99,,,1.17,weatherlink.com 1.10,2013-07-07 02:59:00,
2013-07-06 22:14:00,74.8,74.0,30.00,East,92,2.0,-999.0,96,-99.99,,,1.17,weatherlink.com 1.10,2013-07-07 03:14:00,
2013-07-06 22:29:00,74.8,74.0,30.00,East,92,0.0,-999.0,96,-99.99,,,1.17,weatherlink.com 1.10,2013-07-07 03:29:00,
2013-07-06 22:44:00,74.6,73.0,29.99,East,92,2.0,-999.0,96,-99.99,,,1.17,weatherlink.com 1.10,2013-07-07 03:44:00,
2013-07-06 23:14:00,74.2,73.0,30.00,East,92,2.0,-999.0,96,-99.99,,,1.17,weatherlink.com 1.10,2013-07-07 04:14:00,
2013-07-06 23:29:00,74.0,73.0,30.00,East,92,0.0,-999.0,97,-99.99,,,1.17,weatherlink.com 1.10,2013-07-07 04:29:00,
2013-07-06 23:44:00,73.9,73.0,30.00,East,92,3.0,-999.0,97,-99.99,,,1.17,weatherlink.com 1.10,2013-07-07 04:44:00,
2013-07-06 23:59:00,74.2,73.0,30.00,East,92,0.0,-999.0,97,-99.99,,,1.17,weatherlink.com 1.10,2013-07-07 04:59:00,